Location: *
(17.3280°S, 114.7300°W)
Time: 13:28:01
(UTC+00:00)

Hubble Space Telescope - Pass Details

Date: 03 November 2020
Orbit: 536 x 540 km, 28.5° (Epoch: 29 November)

Event Time Altitude Azimuth Distance (km) Brightness Sun altitude
Exits shadow 12:30:48 - 299° (WNW) 1,892 2.9 -7.3°
Reaches altitude 10° 12:31:26 10° 307° (NW) 1,787 2.8 -7.2°
Maximum altitude 12:32:58 12° 329° (NNW) 1,672 2.8 -6.8°
Drops below altitude 10° 12:34:29 10° 350° (N) 1,782 3.2 -6.5°
Sets 12:38:06 0° 23° (NNE) 2,666 4.4 -5.7°
